DateTimeUTC,F1_A11,F1_S11,BsB_S11,BsG_S11,BsR_S11,BbsB_S11,BbsG_S11,BbsR_S11,BaB_A11,BaG_A11,BaR_A11,Tu_S11,T_S11,Uu_S11,U_S11,P_S11,T1_A11
2021-11-25T14:00:00Z,00000200,21000000,,,,,,,0000.22,-000.09,0000.01,19.0,26.0,,00.0,0642.7,30.9
2021-11-25T14:01:00Z,00000200,21000000,,,,,,,-000.08,-000.05,0000.22,19.0,26.0,,00.0,0642.7,30.9
2021-11-25T14:02:00Z,00000200,21000000,,,,,,,-000.18,-000.14,-000.02,19.0,26.1,,00.0,0642.7,30.9
2021-11-25T14:03:00Z,00000200,61000000,,,,,,,-000.10,-000.23,-000.41,19.1,26.1,,00.0,0642.7,31.0
2021-11-25T14:04:00Z,00000200,41000000,0000.88,0000.04,-000.10,0000.18,0000.03,-000.21,0000.06,0000.28,0000.05,19.4,26.0,,00.0,0643.7,30.9
2021-11-25T14:05:00Z,00000200,01000000,0000.90,0000.39,0000.28,-000.49,0000.28,0000.01,0000.03,-000.13,-000.06,19.4,26.0,,00.0,0643.8,30.9
2021-11-25T14:06:00Z,00000200,01000000,0000.93,0000.08,-000.23,0000.28,0000.29,-000.08,0000.28,0000.35,-000.04,19.4,26.0,,00.0,0643.8,30.9
2021-11-25T14:07:00Z,00000200,01000000,0000.17,0000.04,0000.15,-000.09,-000.22,-000.23,-000.23,-000.21,0000.19,19.3,25.9,,00.0,0643.8,30.9
2021-11-25T14:08:00Z,00000200,01000000,0000.88,0000.23,-000.02,0000.02,0000.03,0000.16,0000.10,0000.10,0000.22,19.3,25.9,,00.0,0643.8,30.9
2021-11-25T14:09:00Z,00000200,01000000,0000.48,0000.16,0000.21,-000.05,0000.15,-000.13,0000.23,-000.01,0000.02,19.2,25.9,,00.0,0643.8,30.8
2021-11-25T14:10:00Z,00000200,01000000,0000.18,0000.19,-000.18,0000.05,0000.16,-000.06,-000.16,0000.20,0000.04,19.1,25.8,,00.0,0643.9,30.8
2021-11-25T14:11:00Z,00000200,01000000,0000.65,-000.03,0000.13,0000.61,0000.23,0000.17,0000.17,0000.34,-000.18,19.1,25.8,,00.0,0643.9,30.8
2021-11-25T14:12:00Z,00000200,01000000,0000.49,0000.43,0000.37,-000.10,-000.06,-000.16,0000.23,-000.07,0000.33,19.1,25.8,,00.0,0643.9,30.9
2021-11-25T14:13:00Z,00000200,01000000,0000.49,-000.04,0000.16,0000.42,-000.06,-000.05,0000.24,-000.31,-000.20,19.1,25.8,,00.0,0643.9,30.9
2021-11-25T14:14:00Z,00000200,01000000,0001.29,0000.23,0000.03,0000.02,0000.12,-000.14,-000.17,0000.34,0000.05,19.2,25.8,,00.0,0644.0,30.9
2021-11-25T14:15:00Z,00000200,01000000,0000.81,0000.26,0000.11,0000.67,-000.12,-000.16,0000.36,0000.29,0000.38,19.3,25.8,,00.0,0644.0,30.9
2021-11-25T14:16:00Z,00000200,01000000,0000.79,0000.11,0000.47,0000.59,0000.02,0000.26,-000.03,0000.10,0000.21,19.3,25.9,,00.0,0644.0,30.9
2021-11-25T14:17:00Z,00000200,01000000,0001.28,-000.15,0000.24,-000.82,-000.04,-000.06,0000.23,0000.10,-000.32,19.4,25.9,,00.0,0644.1,30.9
2021-11-25T14:18:00Z,00000200,01000000,0000.41,0000.07,0000.37,0000.41,-000.15,-000.06,0000.06,-000.32,0000.07,19.5,25.9,,00.0,0644.1,30.9
2021-11-25T14:19:00Z,00000200,01000000,-000.09,0000.30,0000.36,0000.53,0000.14,0000.26,-000.04,0000.14,-000.07,19.5,25.9,,00.0,0644.1,30.9
2021-11-25T14:20:00Z,00000200,01000000,0000.30,-000.22,0000.23,0000.29,0000.02,-000.35,-000.21,-000.34,-000.22,19.6,26.0,,00.0,0644.2,30.9
2021-11-25T14:21:00Z,00000200,01000000,0000.63,0000.27,0000.03,0000.30,0000.01,-000.37,0000.17,0000.38,0000.27,19.6,26.0,,00.0,0644.2,30.9
2021-11-25T14:22:00Z,00000200,01000000,0000.20,0000.08,0000.26,0000.13,0000.20,0000.26,-000.03,-000.34,0000.22,19.5,26.0,,00.0,0644.2,30.9
2021-11-25T14:23:00Z,00000200,01000000,-000.25,0000.08,0000.22,0000.55,-000.05,0000.35,0000.10,0000.29,-000.28,19.4,25.9,,00.0,0644.2,30.9
2021-11-25T14:24:00Z,00000200,01000000,0000.79,0000.22,0000.04,0000.38,-000.03,0000.06,-000.33,-000.04,-000.12,19.3,25.9,,00.0,0644.3,30.9
2021-11-25T14:25:00Z,00000200,01000000,0000.84,0000.06,0000.23,0000.39,-000.06,0000.45,0000.46,0000.17,0000.10,19.3,25.8,,00.0,0644.3,30.9
2021-11-25T14:26:00Z,00000200,01000000,0000.88,0000.31,0000.03,0000.15,0000.01,0000.01,0000.26,-000.06,0000.03,19.3,25.8,,00.0,0644.3,30.9
2021-11-25T14:27:00Z,00000200,01000000,0000.38,0000.01,0000.19,-000.01,0000.14,0000.51,-000.22,0000.39,0000.05,19.3,25.8,,00.0,0644.3,30.9
2021-11-25T14:28:00Z,00000200,01000000,0001.04,0000.11,0000.21,0000.00,0000.13,-000.08,0000.03,-000.01,0000.14,19.3,25.8,,00.0,0644.3,30.9
2021-11-25T14:29:00Z,00000200,01000000,0000.68,0000.37,0000.12,0000.06,-000.09,-000.15,0000.02,-000.13,0000.34,19.4,25.8,,00.0,0644.3,30.9
2021-11-25T14:30:00Z,00000200,01000000,0000.76,0000.70,-000.05,0000.85,-000.10,-000.04,0000.29,0000.28,-000.14,19.4,25.9,,00.0,0644.4,30.9
2021-11-25T14:31:00Z,00000200,01000000,0000.55,0000.26,0000.28,-000.24,0000.30,0000.14,0000.23,0000.04,-000.18,19.5,25.9,,00.0,0644.4,30.9
2021-11-25T14:32:00Z,00000200,01000000,0000.45,0000.07,0000.05,-000.07,0000.23,-000.28,0000.14,0000.19,0000.23,19.6,25.9,,00.0,0644.4,30.9
2021-11-25T14:33:00Z,00000200,01000000,0000.59,-000.12,-000.17,0000.58,0000.03,-000.20,-000.47,-000.20,-000.19,19.6,25.9,,00.0,0644.4,30.9
2021-11-25T14:34:00Z,00000200,01000000,0000.91,0000.11,0000.08,0000.48,0000.07,-000.05,0000.05,-000.06,0000.08,19.6,26.0,,00.0,0644.4,30.9
2021-11-25T14:35:00Z,00000200,01000000,0000.89,0000.27,0000.27,0000.24,-000.10,-000.02,0000.07,-000.06,-000.12,19.6,26.0,,00.0,0644.4,31.0
2021-11-25T14:36:00Z,00000200,01000000,0000.61,0000.28,0000.35,-000.15,0000.17,0000.31,-000.10,0000.09,0000.01,19.5,26.0,,00.0,0644.4,30.9
2021-11-25T14:37:00Z,00000200,01000000,0000.53,0000.17,0000.28,0000.12,0000.24,0000.05,0000.15,0000.11,0000.22,19.4,25.9,,00.0,0644.5,30.9
2021-11-25T14:38:00Z,00000200,01000000,0001.12,0000.31,-000.19,0000.48,-000.29,-000.02,0000.22,0000.16,0000.05,19.4,25.9,,00.0,0644.4,30.9
2021-11-25T14:39:00Z,00000200,01000000,0000.43,-000.18,0000.15,0000.23,0000.02,0000.22,-000.07,-000.05,0000.24,19.3,25.8,,00.0,0644.4,30.8
2021-11-25T14:40:00Z,00000200,01000000,0000.50,0000.04,0000.04,0000.88,-000.10,0000.08,0000.20,0000.24,0000.05,19.2,25.8,,00.0,0644.4,30.8
2021-11-25T14:41:00Z,00000200,01000000,0000.52,0000.05,0000.17,-000.37,-000.18,-000.12,-000.03,-000.02,-000.32,19.2,25.8,,00.0,0644.4,30.8
2021-11-25T14:42:00Z,00000200,01000000,0000.42,0000.39,0000.24,0000.18,-000.27,0000.35,0000.37,0000.41,0000.17,19.2,25.8,,00.0,0644.5,30.9
2021-11-25T14:43:00Z,00000200,01000000,0000.16,0000.22,0000.15,0000.19,0000.04,-000.56,0000.15,-000.05,0000.37,19.2,25.8,,00.0,0644.5,30.9
2021-11-25T14:44:00Z,00000200,01000000,0000.54,0000.07,0000.07,0000.30,0000.06,-000.06,-000.10,-000.09,-000.01,19.3,25.8,,00.0,0644.5,30.9
2021-11-25T14:45:00Z,00000200,01000000,0001.03,0000.27,0000.39,0000.88,0000.18,-000.18,0000.42,0000.15,-000.02,19.4,25.8,,00.0,0644.5,30.9
2021-11-25T14:46:00Z,00000200,01000000,0001.20,0000.19,-000.02,-000.13,0000.36,-000.18,0000.03,0000.13,0000.41,19.4,25.8,,00.0,0644.6,30.9
2021-11-25T14:47:00Z,00000200,01000000,-000.09,-000.20,-000.23,-000.15,0000.03,-000.09,0000.09,0000.03,0000.14,19.5,25.9,,00.0,0644.6,30.9
2021-11-25T14:48:00Z,00000200,01000000,0000.68,0000.15,0000.10,0000.59,0000.13,-000.09,0000.21,0000.48,0000.02,19.5,25.9,,00.0,0644.6,30.9
2021-11-25T14:49:00Z,00000200,01000000,0000.91,0000.03,0000.31,0000.14,-000.01,0000.03,-000.05,-000.11,0000.43,19.6,25.9,,00.0,0644.6,30.9
2021-11-25T14:50:00Z,00000200,01000000,0000.51,0000.25,-000.10,0000.60,-000.17,-000.10,0000.32,0000.03,-000.39,19.6,25.9,,00.0,0644.6,30.9
2021-11-25T14:51:00Z,00000200,01000000,0000.04,0000.05,-000.17,0000.15,0000.15,0000.10,-000.12,0000.06,-000.09,19.7,26.0,,00.0,0644.6,30.9
2021-11-25T14:52:00Z,00000200,01000000,-000.00,-000.11,0000.08,-000.16,0000.07,-000.17,-000.00,-000.11,0000.25,19.7,26.0,,00.0,0644.6,30.9
2021-11-25T14:53:00Z,00000200,01000000,0000.40,0000.26,-000.08,0000.30,-000.12,0000.12,0000.36,0000.20,0000.03,19.6,26.0,,00.0,0644.6,30.9
2021-11-25T14:54:00Z,00000200,01000000,0000.61,0000.17,0000.12,0000.42,0000.27,-000.39,-000.31,-000.27,0000.14,19.5,26.0,,00.0,0644.6,30.9
2021-11-25T14:55:00Z,00000200,01000000,-000.40,0000.32,0000.49,0000.46,-000.00,0000.36,0000.38,0000.28,-000.19,19.5,25.9,,00.0,0644.6,30.9
2021-11-25T14:56:00Z,00000200,01000000,0000.11,0000.23,0000.09,-000.13,0000.15,-000.03,0000.15,0000.24,0000.23,19.4,25.9,,00.0,0644.6,30.9
2021-11-25T14:57:00Z,00000200,41000000,,,,,,,0000.32,0000.23,0000.34,19.5,25.9,,00.0,0644.6,30.9
2021-11-25T14:58:00Z,00000200,61000000,,,,,,,-000.29,0000.02,-000.14,19.2,26.0,,00.0,0643.7,30.9
2021-11-25T14:59:00Z,00000200,21000000,,,,,,,0000.17,0000.19,0000.30,19.2,26.1,,00.0,0643.7,30.9
